TimeEDT,TemperatureF,Dew PointF,Humidity,Sea Level PressureIn,VisibilityMPH,Wind Direction,Wind SpeedMPH,Gust SpeedMPH,PrecipitationIn,Events,Conditions,WindDirDegrees,DateUTC
12:15 AM,39.2,33.8,81,30.08,10.0,West,3.5,-,N/A,,Clear,280,2012-10-07 04:15:00
12:35 AM,39.2,33.8,81,30.07,10.0,West,3.5,-,N/A,,Clear,280,2012-10-07 04:35:00
12:55 AM,39.2,33.8,81,30.07,10.0,WNW,3.5,-,N/A,,Scattered Clouds,300,2012-10-07 04:55:00
1:20 AM,39.2,33.8,81,30.06,10.0,Calm,Calm,-,N/A,,Scattered Clouds,0,2012-10-07 05:20:00
1:40 AM,39.2,33.8,81,30.06,10.0,NW,3.5,-,N/A,,Scattered Clouds,320,2012-10-07 05:40:00
2:00 AM,39.2,33.8,81,30.05,10.0,North,4.6,-,N/A,,Mostly Cloudy,350,2012-10-07 06:00:00
2:25 AM,37.4,35.6,93,30.04,10.0,North,3.5,-,N/A,,Scattered Clouds,350,2012-10-07 06:25:00
2:45 AM,37.4,35.6,93,30.03,10.0,North,3.5,-,N/A,,Scattered Clouds,350,2012-10-07 06:45:00
3:05 AM,37.4,35.6,93,30.04,10.0,Calm,Calm,-,N/A,,Mostly Cloudy,0,2012-10-07 07:05:00
3:25 AM,37.4,35.6,93,30.04,10.0,Calm,Calm,-,N/A,,Overcast,0,2012-10-07 07:25:00
3:50 AM,37.4,35.6,93,30.04,10.0,South,3.5,-,N/A,,Overcast,170,2012-10-07 07:50:00
4:10 AM,37.4,37.4,100,30.04,10.0,SSE,4.6,-,N/A,,Overcast,160,2012-10-07 08:10:00
4:30 AM,37.4,37.4,100,30.05,10.0,Calm,Calm,-,N/A,,Overcast,0,2012-10-07 08:30:00
4:50 AM,37.4,35.6,93,30.05,10.0,South,3.5,-,N/A,,Overcast,170,2012-10-07 08:50:00
5:15 AM,37.4,35.6,93,30.05,10.0,South,3.5,-,N/A,,Overcast,180,2012-10-07 09:15:00
5:35 AM,37.4,37.4,100,30.04,10.0,SSE,3.5,-,N/A,,Overcast,160,2012-10-07 09:35:00
5:55 AM,37.4,37.4,100,30.04,10.0,SSE,4.6,-,N/A,,Overcast,160,2012-10-07 09:55:00
6:15 AM,37.4,37.4,100,30.04,10.0,Calm,Calm,-,N/A,,Overcast,0,2012-10-07 10:15:00
6:40 AM,37.4,37.4,100,30.04,10.0,NNE,3.5,-,N/A,,Overcast,20,2012-10-07 10:40:00
7:00 AM,37.4,37.4,100,30.05,10.0,South,3.5,-,N/A,,Overcast,170,2012-10-07 11:00:00
7:20 AM,37.4,37.4,100,30.06,10.0,Calm,Calm,-,N/A,,Overcast,0,2012-10-07 11:20:00
7:40 AM,37.4,37.4,100,30.05,10.0,ESE,5.8,-,N/A,,Overcast,110,2012-10-07 11:40:00
8:05 AM,37.4,35.6,93,30.05,10.0,ESE,8.1,-,N/A,,Overcast,120,2012-10-07 12:05:00
8:25 AM,37.4,35.6,93,30.06,10.0,ESE,6.9,-,N/A,,Overcast,120,2012-10-07 12:25:00
8:45 AM,37.4,35.6,93,30.06,10.0,ESE,9.2,-,N/A,,Overcast,120,2012-10-07 12:45:00
9:05 AM,37.4,35.6,93,30.06,10.0,SE,9.2,-,N/A,,Overcast,130,2012-10-07 13:05:00
9:30 AM,39.2,37.4,93,30.07,10.0,SE,9.2,-,N/A,,Overcast,140,2012-10-07 13:30:00
9:50 AM,41.0,37.4,87,30.08,10.0,SE,10.4,-,N/A,,Overcast,140,2012-10-07 13:50:00
10:10 AM,41.0,37.4,87,30.07,10.0,SE,9.2,-,N/A,,Overcast,140,2012-10-07 14:10:00
10:30 AM,41.0,37.4,87,30.08,10.0,SE,8.1,-,N/A,,Overcast,130,2012-10-07 14:30:00
10:55 AM,42.8,37.4,81,30.07,10.0,SE,6.9,-,N/A,,Overcast,140,2012-10-07 14:55:00
11:15 AM,42.8,37.4,81,30.06,10.0,SE,9.2,-,N/A,,Overcast,130,2012-10-07 15:15:00
11:35 AM,44.6,37.4,76,30.05,10.0,SSE,8.1,-,N/A,,Overcast,150,2012-10-07 15:35:00
11:55 AM,44.6,39.2,81,30.04,10.0,SE,5.8,-,N/A,,Overcast,140,2012-10-07 15:55:00
12:20 PM,44.6,37.4,76,30.05,10.0,South,4.6,-,N/A,,Overcast,170,2012-10-07 16:20:00
12:40 PM,44.6,39.2,81,30.05,10.0,SSE,6.9,-,N/A,,Overcast,160,2012-10-07 16:40:00
1:00 PM,46.4,37.4,71,30.04,10.0,SSE,4.6,-,N/A,,Overcast,160,2012-10-07 17:00:00
1:20 PM,44.6,37.4,76,30.04,10.0,WSW,3.5,-,N/A,,Overcast,240,2012-10-07 17:20:00
1:45 PM,44.6,37.4,76,30.04,10.0,Calm,Calm,-,N/A,,Overcast,0,2012-10-07 17:45:00
2:25 PM,44.6,37.4,76,30.02,10.0,West,6.9,-,N/A,,Overcast,260,2012-10-07 18:25:00
2:45 PM,44.6,37.4,76,30.02,10.0,West,6.9,-,N/A,,Overcast,260,2012-10-07 18:45:00
3:10 PM,41.0,41.0,100,30.03,10.0,WSW,4.6,-,N/A,,Overcast,250,2012-10-07 19:10:00
3:50 PM,41.0,41.0,100,30.04,2.5,West,3.5,-,N/A,,Overcast,280,2012-10-07 19:50:00
4:35 PM,37.4,37.4,100,30.06,5.0,WNW,8.1,-,N/A,,Overcast,290,2012-10-07 20:35:00
4:55 PM,37.4,37.4,100,30.06,5.0,West,10.4,-,N/A,,Overcast,280,2012-10-07 20:55:00
5:15 PM,37.4,37.4,100,30.06,4.0,West,8.1,-,N/A,,Overcast,270,2012-10-07 21:15:00
5:35 PM,35.6,35.6,100,30.07,5.0,WNW,9.2,-,N/A,,Overcast,300,2012-10-07 21:35:00
6:00 PM,35.6,35.6,100,30.08,3.0,West,5.8,-,N/A,,Overcast,280,2012-10-07 22:00:00
6:20 PM,35.6,35.6,100,30.09,1.8,WNW,9.2,-,N/A,,Overcast,290,2012-10-07 22:20:00
6:40 PM,35.6,35.6,100,30.09,4.0,WNW,6.9,-,N/A,,Overcast,290,2012-10-07 22:40:00
7:00 PM,35.6,35.6,100,30.10,3.0,WNW,6.9,-,N/A,,Overcast,290,2012-10-07 23:00:00
7:25 PM,35.6,35.6,100,30.10,5.0,WNW,5.8,-,N/A,,Overcast,290,2012-10-07 23:25:00
7:45 PM,35.6,35.6,100,30.10,7.0,West,8.1,-,N/A,,Overcast,280,2012-10-07 23:45:00
8:05 PM,33.8,33.8,100,30.10,10.0,WNW,6.9,-,N/A,,Mostly Cloudy,290,2012-10-08 00:05:00
8:25 PM,33.8,33.8,100,30.10,7.0,WNW,5.8,-,N/A,,Scattered Clouds,290,2012-10-08 00:25:00
9:10 PM,33.8,33.8,100,30.11,7.0,WNW,4.6,-,N/A,,Mostly Cloudy,300,2012-10-08 01:10:00
9:30 PM,33.8,33.8,100,30.12,7.0,WNW,6.9,-,N/A,,Overcast,300,2012-10-08 01:30:00
9:50 PM,33.8,33.8,100,30.13,5.0,WNW,5.8,-,N/A,,Overcast,290,2012-10-08 01:50:00
10:15 PM,33.8,33.8,100,30.13,4.0,WNW,5.8,-,N/A,,Overcast,300,2012-10-08 02:15:00
10:35 PM,33.8,33.8,100,30.13,4.0,NW,6.9,-,N/A,,Overcast,310,2012-10-08 02:35:00
10:55 PM,33.8,33.8,100,30.14,1.0,WNW,3.5,-,N/A,,Overcast,290,2012-10-08 02:55:00
11:20 PM,33.8,33.8,100,30.13,1.5,NW,3.5,-,N/A,,Overcast,310,2012-10-08 03:20:00